カタログに戻る

STARLINK-4756

運用中通信VLEO
NORAD 53826·PAYLOAD·🇺🇸 United States

打ち上げ Sep 19, 2022 から Cape Canaveral Space Force Station

Loading…

次のパス (今後24時間)

TLE

最新Source: CelesTrak SupGP

元期: Sep 14, 2026, 22:24 UTC

1 53826C 22114J   26257.93381944 -.00029519  00000+0 -87271-3 0  2579
2 53826  53.1586 165.8166 0001125 102.3091   7.8876 15.34385774    16

AllMySatでSTARLINK-4756をリアルタイム追跡

Download on the App Store